Home > Weather > Jersey City > Past weeks

Flag for USA Weather for the Past 2 Weeks in Jersey City, New Jersey, USA

Now
48 °F

Mostly cloudy.


Feels Like: 46 °F
Forecast: 46 / 56 °F
Wind: 5 mph from South

Location: Newark International Airport

Current Time: Apr 28, 2016 at 10:38:03 PM

Latest Report: Apr 28, 2016 at 9:51 PM


Visibility: 10 mi

Pressure: 30.05 "Hg

Humidity: 68%

Dew Point: 38 °F

Location of Jersey CityLocation

Historic Weather in Jersey City — Graph

°F

Jersey City Temperature Yesterday

Maximum temperature yesterday: 60 °F (at 4:51 PM)
Minimum temperature yesterday: 46 °F (at 12:51 AM)
Average temperature yesterday: 53 °F

High & Low Weather Summary for the Past Weeks

 TemperatureHumidityPressure
High82 °F (Apr 22, 2:51 PM)100% (Apr 23, 4:51 AM)30.48 "Hg (Apr 23, 4:51 AM)
Low41 °F (Apr 15, 5:51 AM)10% (Apr 20, 3:51 PM)29.62 "Hg (Apr 26, 2:51 PM)
Average58 °F48%30.09 "Hg
* Reported Apr 13 8:51 PM — Apr 28 8:51 PM, Jersey City, Weather by CustomWeather, © 2016

Note: Actual official high and low records may vary slightly from our data, if they occured in-between our weather recording intervals... More about our weather records

Advertising

Jersey City Weather History for the Previous 24 Hours

Scroll right to see more
 ConditionsComfort  
Time TempWeatherWind HumidityBarometerVisibility
8:51 PM
Thu, Apr 28
48 °FOvercast.3 mph63%30.04 "Hg10 mi
7:51 PM48 °FMostly cloudy.5 mph63%30.04 "Hg10 mi
6:51 PM49 °FLight rain. Mostly cloudy.7 mph59%30.04 "Hg10 mi
5:51 PM52 °FMostly cloudy.8 mph49%30.03 "Hg10 mi
4:51 PM53 °FCloudy.8 mph38%30.02 "Hg10 mi
3:51 PM55 °FCloudy.12 mph40%30.02 "Hg10 mi
2:51 PM54 °FMostly cloudy.10 mph43%30.04 "Hg10 mi
1:51 PM55 °FMostly cloudy.9 mph45%30.04 "Hg10 mi
12:51 PM58 °FMostly cloudy.7 mph24%30.04 "Hg10 mi
11:51 AM55 °FCloudy.6 mph30%30.06 "Hg10 mi
10:51 AM54 °FPartly sunny.8 mph30%30.06 "Hg10 mi
9:51 AM54 °FBroken clouds.9 mph31%30.06 "Hg10 mi
8:51 AM51 °FBroken clouds.10 mph33%30.06 "Hg10 mi
7:51 AM50 °FMore clouds than sun.10 mph36%30.05 "Hg10 mi
6:51 AM50 °FMostly cloudy.12 mph33%30.03 "Hg10 mi
5:51 AM47 °FPassing clouds.10 mph59%29.99 "Hg10 mi
4:51 AM48 °FPassing clouds.8 mph66%29.97 "Hg10 mi
3:51 AM48 °FPassing clouds.7 mph74%29.94 "Hg10 mi
2:51 AM49 °FPassing clouds.No wind84%29.92 "Hg10 mi
1:51 AM51 °FPassing clouds.3 mph80%29.91 "Hg10 mi
12:51 AM51 °FPassing clouds.6 mph77%29.92 "Hg10 mi
11:51 PM
Wed, Apr 27
52 °FPassing clouds.6 mph75%29.92 "Hg10 mi
10:51 PM53 °FPassing clouds.10 mph72%29.90 "Hg10 mi
Weather by CustomWeather, © 2016

See weather overviewHow to use our weather pages